Weather History for Kingsville NAS, TX

Change the Weather History Date:

Thursday, November 21, 2013

  Actual Average Record
Temperature  
Mean Temperature 81 °F -  
Max Temperature 89 °F 72 °F 91 °F (1996)
Min Temperature 73 °F 53 °F 37 °F (2005)
Cooling Degree Days 16    
Growing Degree Days 31 (Base 50)    
Moisture  
Dew Point 74 °F    
Average Humidity 89    
Maximum Humidity 97    
Minimum Humidity 65    
Precipitation  
Precipitation 0.00 in - - ()
Sea Level Pressure  
Sea Level Pressure 29.95 in    
Wind  
Wind Speed 11 mph (SE)    
Max Wind Speed 21 mph    
Max Gust Speed 25 mph    
Visibility 9 miles    
Events      
Averages and records for this station are not official NWS values.
T = Trace of Precipitation, MM = Missing Value Source: NWS Daily Summary

Daily Weather History Graph

Daily Weather History Graph

Search for Another Location

Airport:

Trip Planner

Search our weather history database for the weather conditions in past years. The results will help you decide how hot, cold, wet, or windy it might be!

Date:

Astronomy

Nov. 21, 2013 Rise Set
Actual Time 6:56 AM CST 5:37 PM CST
Civil Twilight 6:31 AM CST 6:02 PM CST
Nautical Twilight 6:03 AM CST 6:30 PM CST
Astronomical Twilight 5:35 AM CST 6:58 PM CST
Moon 9:12 PM CST (11/21) 10:06 AM CST (11/21)
Length of Visible Light 11h 30m
Length of Day
10h 40m
Waning Gibbous, 85% of the Moon is Illuminated
Nov 21
Waning Gibbous
Nov 25
Last Quarter
Dec 2
New
Dec 9
First Quarter
Dec 17
Full

Hourly Weather History & Observations

Time (CST) Temp. Heat Index Dew Point Humidity Pressure Visibility Wind Dir Wind Speed Gust Speed Precip Events Conditions
12:56 AM 73.9 °F - 73.0 °F 97% 29.91 in 10.0 mi SSE 9.2 mph - N/A   Clear
1:56 AM 73.9 °F - 73.0 °F 97% 29.90 in 10.0 mi SE 9.2 mph - N/A   Scattered Clouds
2:56 AM 73.9 °F - 73.0 °F 97% 29.90 in 10.0 mi SE 6.9 mph - N/A   Mostly Cloudy
3:08 AM 73.9 °F - 73.0 °F 97% 29.91 in 10.0 mi SE 5.8 mph - N/A   Mostly Cloudy
3:56 AM 75.0 °F - 73.9 °F 96% 29.91 in 10.0 mi SSE 5.8 mph - N/A   Overcast
4:56 AM 75.0 °F - 73.9 °F 96% 29.90 in 10.0 mi SE 6.9 mph - N/A   Overcast
5:05 AM 75.0 °F - 73.9 °F 96% 29.91 in 10.0 mi North - - N/A   Overcast
5:56 AM 75.0 °F - 73.9 °F 96% 29.91 in 10.0 mi SE 6.9 mph - N/A   Overcast
6:18 AM 75.0 °F - 73.9 °F 96% 29.93 in 10.0 mi ESE 4.6 mph - N/A   Overcast
6:30 AM 73.9 °F - 73.0 °F 97% 29.93 in 10.0 mi ESE 5.8 mph - N/A   Overcast
6:56 AM 73.9 °F - 73.0 °F 97% 29.93 in 4.0 mi SE 5.8 mph - N/A   Overcast
7:10 AM 73.9 °F - 73.0 °F 97% 29.94 in 3.0 mi SE 6.9 mph - N/A   Mostly Cloudy
7:56 AM 75.0 °F - 73.9 °F 96% 29.95 in 4.0 mi SE 8.1 mph - N/A   Mostly Cloudy
8:56 AM 77.0 °F - 75.0 °F 94% 29.97 in 7.0 mi South 11.5 mph - N/A   Mostly Cloudy
9:56 AM 82.0 °F 87.4 °F 73.0 °F 74% 29.97 in 10.0 mi SSE 20.7 mph - N/A   Mostly Cloudy
10:12 AM 84.0 °F 91.2 °F 73.9 °F 72% 29.99 in 10.0 mi South 19.6 mph 24.2 mph N/A   Mostly Cloudy
10:56 AM 84.0 °F 90.2 °F 73.0 °F 69% 29.97 in 10.0 mi SSE 19.6 mph 24.2 mph N/A   Mostly Cloudy
11:36 AM 82.9 °F 89.4 °F 73.9 °F 74% 29.97 in 10.0 mi SE 17.3 mph - N/A   Mostly Cloudy
11:56 AM 84.0 °F 91.2 °F 73.9 °F 72% 29.95 in 10.0 mi SSE 16.1 mph - N/A   Mostly Cloudy
12:56 PM 84.0 °F 91.2 °F 73.9 °F 72% 29.92 in 10.0 mi SE 13.8 mph - N/A   Mostly Cloudy
1:56 PM 89.1 °F 100.2 °F 75.9 °F 65% 29.90 in 10.0 mi SE 15.0 mph 25.3 mph N/A   Mostly Cloudy
2:56 PM 84.9 °F 93.3 °F 75.0 °F 72% 29.90 in 10.0 mi SE 18.4 mph 23.0 mph N/A   Mostly Cloudy
3:56 PM 82.9 °F 90.2 °F 75.0 °F 77% 29.90 in 10.0 mi SE 20.7 mph - N/A   Mostly Cloudy
4:56 PM 81.0 °F 86.2 °F 73.9 °F 79% 29.91 in 10.0 mi SE 17.3 mph 24.2 mph N/A   Mostly Cloudy
5:34 PM 79.0 °F - 75.0 °F 88% 29.93 in 10.0 mi SE 13.8 mph - N/A   Mostly Cloudy
5:56 PM 79.0 °F - 75.0 °F 88% 29.94 in 10.0 mi SE 16.1 mph 21.9 mph N/A   Mostly Cloudy
6:03 PM 79.0 °F - 75.0 °F 88% 29.95 in 10.0 mi SE 16.1 mph - N/A   Mostly Cloudy
6:56 PM 78.1 °F - 75.0 °F 90% 29.96 in 10.0 mi SE 12.7 mph - N/A   Mostly Cloudy
7:41 PM 77.0 °F - 75.0 °F 94% 29.98 in 10.0 mi SE 16.1 mph - N/A   Mostly Cloudy
7:56 PM 77.0 °F - 75.0 °F 94% 29.98 in 10.0 mi SE 13.8 mph - N/A   Mostly Cloudy
8:41 PM 77.0 °F - 75.0 °F 94% 30.00 in 10.0 mi SE 13.8 mph - N/A   Scattered Clouds
8:56 PM 77.0 °F - 75.0 °F 94% 30.00 in 10.0 mi SE 15.0 mph - N/A   Scattered Clouds
9:56 PM 77.0 °F - 75.0 °F 94% 30.00 in 10.0 mi SE 10.4 mph - N/A   Scattered Clouds
10:46 PM 75.9 °F - 75.0 °F 97% 30.02 in 10.0 mi SE 6.9 mph - N/A   Mostly Cloudy
10:56 PM 75.9 °F - 75.0 °F 97% 30.01 in 10.0 mi SE 6.9 mph - N/A   Mostly Cloudy
11:37 PM 77.0 °F - 75.0 °F 94% 30.02 in 10.0 mi SSE 8.1 mph - N/A   Overcast
11:47 PM 77.0 °F - 75.0 °F 94% 30.02 in 10.0 mi SSE 8.1 mph - N/A   Overcast
11:56 PM 77.0 °F - 75.0 °F 94% 30.01 in 10.0 mi SSE 9.2 mph - N/A   Overcast